Location: Drignac
(45.1667°N, 2.0333°E)
Time: 13:31:03
(UTC+00:00)

Meteor 2-14 Rocket - Pass Details

Date: 29 March 2020
Orbit: 938 x 956 km, 82.5° (Epoch: 02 June)

Event Time Altitude Azimuth Distance (km) Brightness Sun altitude
Rises 18:33:01 0° 351° (N) 3,612 7.7 -3.7°
Reaches altitude 10° 18:35:31 10° 352° (N) 2,663 7.1 -4.2°
Maximum altitude 18:41:37 87° 81° (E) 946 4.5 -5.2°
Drops below altitude 10° 18:47:41 10° 172° (S) 2,646 6.6 -6.3°
Sets 18:50:09 0° 173° (S) 3,588 7.3 -6.7°
